Malmstrom AFB, MT

1:29 AM MST on January 20, 2017 (GMT -0700)
Malmstrom AFB

Weather History for KGFA - August, 2013

Change the Weather History Date:

Tuesday, August 20, 2013

  Actual Average (KGTF) Record (KGTF)
Temperature  
Mean Temperature 74 °F -  
Max Temperature 88 °F 79 °F 99 °F (1931)
Min Temperature 57 °F 52 °F 39 °F (1916)
Cooling Degree Days 8    
Growing Degree Days 24 (Base 50)    
Moisture  
Dew Point 38 °F    
Average Humidity 30    
Maximum Humidity 48    
Minimum Humidity 16    
Precipitation  
Precipitation 0.00 in - - ()
Sea Level Pressure  
Sea Level Pressure 29.93 in    
Wind  
Wind Speed 4 mph (SSW)    
Max Wind Speed 14 mph    
Max Gust Speed 22 mph    
Visibility 10 miles    
Events      
Averages and records for this station are not official NWS values.
T = Trace of Precipitation, MM = Missing Value Source: NWS Daily Summary

Daily Weather History Graph

Daily Weather History Graph

Search for Another Location

Airport or City:

Trip Planner

Search our weather history database for the weather conditions in past years. The results will help you decide how hot, cold, wet, or windy it might be!

Date:

Astronomy

Aug. 20, 2013 Rise Set
Actual Time 6:27 AM MDT 8:27 PM MDT
Civil Twilight 5:54 AM MDT 9:00 PM MDT
Nautical Twilight 5:13 AM MDT 9:40 PM MDT
Astronomical Twilight 4:28 AM MDT 10:25 PM MDT
Moon 7:55 PM MDT 6:04 AM MDT
Length of Visible Light 15h 05m
Length of Day
13h 59m
Full, 100% of the Moon is Illuminated
Aug 20
Full
Aug 20
Full
Aug 28
Last Quarter
Sep 5
New
Sep 12
First Quarter

Hourly Weather History & Observations

Time (MDT) Temp. Dew Point Humidity Pressure Visibility Wind Dir Wind Speed Gust Speed Precip Events Conditions
12:56 AM 73.0 °F 35.1 °F 25% 29.88 in 10.0 mi Calm Calm - N/A   Clear
1:56 AM 66.0 °F 36.0 °F 33% 29.89 in 10.0 mi Calm Calm - N/A   Clear
2:56 AM 59.0 °F 37.0 °F 44% 29.91 in 10.0 mi Calm Calm - N/A   Clear
3:56 AM 66.9 °F 36.0 °F 32% 29.91 in 10.0 mi WNW 3.5 mph - N/A   Clear
4:56 AM 61.0 °F 37.9 °F 42% 29.92 in 10.0 mi East 3.5 mph - N/A   Clear
5:56 AM 61.0 °F 37.9 °F 42% 29.94 in 10.0 mi SSE 3.5 mph - N/A   Clear
6:56 AM 59.0 °F 39.0 °F 48% 29.96 in 10.0 mi South 3.5 mph - N/A   Clear
7:56 AM 64.9 °F 42.1 °F 43% 29.96 in 10.0 mi SE 3.5 mph - N/A   Clear
8:56 AM 73.9 °F 41.0 °F 30% 29.96 in 10.0 mi South 4.6 mph - N/A   Clear
9:56 AM 75.9 °F 41.0 °F 29% 29.94 in 10.0 mi SW 8.1 mph - N/A   Clear
10:56 AM 78.1 °F 41.0 °F 27% 29.95 in 10.0 mi West 11.5 mph - N/A   Clear
11:56 AM 80.1 °F 39.9 °F 24% 29.93 in 10.0 mi WSW 13.8 mph 21.9 mph N/A   Clear
12:56 PM 82.0 °F 41.0 °F 23% 29.92 in 10.0 mi Variable 6.9 mph - N/A   Clear
1:56 PM 84.0 °F 41.0 °F 22% 29.91 in 10.0 mi South 10.4 mph 18.4 mph N/A   Clear
2:56 PM 86.0 °F 39.0 °F 19% 29.90 in 10.0 mi WSW 13.8 mph 21.9 mph N/A   Clear
3:56 PM 88.0 °F 37.9 °F 17% 29.86 in 10.0 mi WSW 13.8 mph 19.6 mph N/A   Clear
4:56 PM 87.1 °F 37.9 °F 18% 29.87 in 10.0 mi SW 12.7 mph 20.7 mph N/A   Clear
5:56 PM 88.0 °F 36.0 °F 16% 29.86 in 10.0 mi West 11.5 mph 16.1 mph N/A   Clear
9:56 PM 73.9 °F 33.1 °F 22% 29.96 in 10.0 mi Calm Calm - N/A   Clear
10:56 PM 72.0 °F 32.0 °F 23% 29.98 in 10.0 mi Calm Calm - N/A   Clear
11:56 PM 57.9 °F 35.1 °F 42% 30.03 in 10.0 mi Calm Calm - N/A   Clear